Regional Weather Roundup
Issued by NWS Albany, NY

Home | Current Version | Previous Version | Graphics & Text | Print | Product List | Glossary Off
Versions: 1 2 3 4 5 6 7 8 9 10 11 12 13 14 15 16 17 18 19 20 21 22 23 24 25 26 27

000
ASUS41 KALY 170310
RWRALY

NEW YORK STATE HOURLY WEATHER ROUNDUP
NATIONAL WEATHER SERVICE ALBANY NY
1100 PM EDT WED AUG 16 2017

NOTE: "FAIR" INDICATES FEW OR NO CLOUDS BELOW 12,000 FEET WITH NO
SIGNIFICANT WEATHER AND/OR NO OBSTRUCTIONS TO VISIBILITY.

NYZ032-033-038>043-046>054-057>066-NYZ062>081-082-084-170400-
EAST


CITY           SKY/WX    TMP DP  RH WIND       PRES   REMARKS
ALBANY         CLEAR     65  57  75 N5        30.06R
GLENS FALLS    CLEAR     59  50  72 CALM      30.05S
POUGHKEEPSIE   CLEAR     66  62  87 CALM      30.02R
NEWBURGH       PTCLDY    72  63  73 VRB5      30.05R
MONTGOMERY     CLEAR     65  62  90 CALM      30.03R
WHITE PLAINS   CLEAR     71  66  84 W3        30.02R
ISLIP          PTCLDY    73  70  90 CALM      30.01R
NEW YORK CITY  PTCLDY    80  63  55 NW3       30.00R
CENTRAL PARK   CLEAR     78  61  55 CALM      30.04R
$$

NYZ005>009-017-018-044>046-055-056-170400-
CENTRAL


CITY           SKY/WX    TMP DP  RH WIND       PRES   REMARKS
FULTON         CLEAR     54  51  90 CALM      30.08S
SYRACUSE       PTCLDY    57  53  86 CALM      30.08R
ROME           CLEAR     57  51  80 NE3       30.09R
ELMIRA         CLEAR     64  60  87 NE6       30.09R
BINGHAMTON     CLEAR     60  55  83 NE6       30.10R
MONTICELLO     CLEAR     61  57  87 W3        30.10R
$$

NYZ026>034-041>043-087-170400-
NORTH


CITY           SKY/WX    TMP DP  RH WIND       PRES   REMARKS
WATERTOWN      CLEAR     54  53  97 SE5       30.08R
FORT DRUM      NOT AVBL
OGDENSBURG     FAIR      54  53  95 CALM      30.06S
MASSENA        CLEAR     57  56  96 CALM      30.06S
SARANAC LAKE   CLEAR     45  45 100 CALM      30.08F
PLATTSBURGH    CLEAR     54  49  83 CALM      30.04S
$$

NYZ001>004-010>016-019>021-085-170400-
WEST


CITY           SKY/WX    TMP DP  RH WIND       PRES   REMARKS
NIAGARA FALLS  CLEAR     67  60  78 E5        30.07R
BUFFALO        CLEAR     66  60  81 E7        30.07R
DUNKIRK        CLEAR     63  61  93 CALM      30.06R
JAMESTOWN      CLEAR     66  59  77 NE6       30.10S
WELLSVILLE     CLEAR     61  57  87 E5        30.14R
ROCHESTER      CLEAR     63  55  75 CALM      30.09R
PENN YAN       CLEAR     57  53  86 CALM      30.11R
$$

             KEY
       WCI = WIND CHILL INDEX
       VSB = VISIBILITY
       HX  = HEAT INDEX
$$




USA.gov is the U.S. government's official web portal to all federal, state and local government web resources and services.